{"data":{"norad_id":41785,"epoch":"2026-09-20T04:23:23.224416Z","epoch_age_seconds":41682,"freshness":"FRESH","line1":"1 41785U 16059C   26263.18290769  .00000264  00000+0  49256-4 0  9998","line2":"2 41785  97.7797 267.8666 0007823 285.0081  75.0261 14.72334615534557","mean_motion":14.72334615,"eccentricity":0.0007823,"inclination_deg":97.7797,"raan_deg":267.8666,"arg_perigee_deg":285.0081,"mean_anomaly_deg":75.0261,"bstar":4.9256e-5,"rev_number":53455,"period_min":97.803854187046,"perigee_km":648.1239975109,"apogee_km":659.12589224986,"semimajor_km":7031.7619448804,"source":"CELESTRAK","updated_at":"2026-09-20T09:00:33.968516Z"}}